GFSSE_sfc_rhum_000.txt.gz
RH
93 92 85 81 76 75 77 77 77 77 78 79 79 80 80 81 82 83 82 80 78 79 76 75 75 75 74 73 74 73 76 74 73 73 75 73 72 72 72 71 74 67 74
87 88 84 80 79 77 76 77 79 76 79 80 80 82 80 80 79 81 80 78 78 77 76 74 76 75 71 69 69 70 70 72 71 71 72 72 72 71 72 70 73 66 72
92 88 83 82 77 76 77 78 76 75 79 81 82 82 80 78 79 77 76 77 77 75 74 75 75 74 73 70 68 65 67 70 69 67 76 83 79 72 70 70 74 74 74
86 92 90 84 81 77 78 79 77 75 78 82 83 84 82 80 79 77 76 76 75 74 73 72 71 70 70 71 71 70 68 66 68 69 81 81 73 73 71 68 73 74 75
94 94 92 83 81 80 80 80 82 81 81 81 83 81 80 80 78 75 74 74 74 73 71 69 69 69 71 70 71 74 74 72 71 73 82 84 86 72 74 69 72 70 75
94 91 84 80 78 79 80 80 80 82 82 83 83 81 79 76 73 72 71 72 72 70 69 68 68 68 71 71 72 74 70 73 73 80 83 82 84 75 72 65 72 66 70
95 90 84 83 82 80 80 79 82 81 80 83 83 79 77 75 72 72 72 71 70 69 69 68 68 68 69 71 74 74 72 71 79 83 84 84 84 77 74 71 70 70 72
96 95 90 82 81 81 81 81 83 82 82 83 81 78 77 75 74 73 71 69 67 66 67 67 68 70 72 74 77 74 73 73 76 83 83 85 86 78 77 73 70 74 73
94 96 96 92 82 80 83 82 82 82 79 79 78 79 77 75 74 73 71 70 68 67 67 68 69 73 74 75 78 75 74 73 80 87 78 87 86 78 70 74 72 72 73
96 97 97 95 92 95 91 79 76 78 78 77 77 76 75 73 71 68 77 78 71 70 70 72 71 74 74 76 74 72 71 69 84 87 86 84 86 76 72 70 77 72 71
93 97 97 97 97 97 95 88 79 76 76 76 76 75 82 90 85 77 78 74 70 69 72 73 71 71 76 77 76 74 76 90 87 88 89 88 82 75 73 70 74 73 73
96 97 97 97 98 98 92 94 94 91 90 92 91 90 95 91 90 75 77 73 70 66 72 74 71 77 82 81 79 78 75 82 88 89 86 87 79 74 73 71 73 72 75
92 94 97 98 98 98 98 98 99 98 97 97 93 94 94 92 93 92 88 90 89 80 84 83 87 81 83 82 86 82 80 80 76 77 83 86 79 76 74 74 66 72 74
97 95 96 97 98 98 99 99 98 99 98 96 95 95 97 97 94 91 94 90 93 89 86 88 87 87 86 87 84 86 86 79 77 77 78 85 84 75 73 73 73 70 70
96 94 96 98 98 97 98 98 99 99 97 95 97 95 95 97 97 94 94 95 95 94 91 91 94 93 90 86 86 86 83 87 82 76 76 78 84 80 73 74 73 76 72
91 92 93 96 97 98 98 98 98 98 97 97 96 96 95 98 98 96 96 93 92 95 89 94 93 91 87 85 86 84 83 82 86 80 74 81 79 82 80 76 75 76 75
88 88 91 92 96 97 96 98 98 97 97 94 95 92 94 96 98 97 98 96 95 90 90 91 90 87 85 83 86 84 83 85 84 84 78 84 82 80 80 81 81 78 78
85 89 89 81 89 95 96 96 95 97 97 97 93 90 91 93 94 96 98 97 95 95 91 92 90 87 88 88 89 85 86 85 85 82 79 77 86 81 84 81 82 80 77
82 84 87 89 91 95 97 96 96 94 92 92 94 95 90 90 90 96 98 97 94 97 97 93 91 93 93 89 86 85 86 87 87 76 83 83 79 80 74 78 83 80 74
77 83 84 89 93 96 97 97 97 97 95 93 96 95 90 93 90 96 97 96 96 97 95 96 96 95 94 93 86 84 86 85 85 82 79 76 79 79 76 82 89 86 82
74 86 90 94 96 96 98 99 99 98 97 94 95 93 91 90 93 95 98 94 96 95 93 93 94 96 93 94 97 89 86 80 79 76 76 74 68 68 79 87 92 92 86
75 85 91 92 95 93 97 97 96 96 96 92 92 93 91 91 93 91 94 93 94 94 92 91 95 95 95 96 97 98 95 77 74 72 75 75 74 72 70 78 84 84 87
74 84 88 89 91 92 96 98 98 98 98 98 97 96 95 92 91 92 92 93 91 92 91 90 90 94 94 95 95 96 95 93 96 77 78 76 83 87 87 84 80 82 86
71 77 83 86 87 92 96 96 96 98 99 98 95 96 94 90 88 87 88 87 88 92 91 91 92 94 95 95 96 96 94 94 97 92 75 76 74 71 84 88 86 84 86
65 75 80 86 88 94 96 94 93 97 97 91 93 95 95 88 82 83 85 87 90 88 90 91 91 94 95 96 96 96 95 96 96 97 92 78 72 84 82 87 85 85 82
64 71 78 89 90 94 95 95 94 95 96 94 94 96 90 84 84 85 84 91 90 89 88 86 88 90 93 95 96 96 96 94 95 96 96 92 90 77 86 83 84 82 76

GFSSE_sfc_rhum_003.txt.gz
RH
81 78 80 76 75 79 74 77 77 78 78 81 81 82 81 80 79 81 80 78 79 78 76 76 76 74 72 74 73 74 74 72 73 72 74 73 74 73 72 70 72 48 73
70 74 81 77 76 79 77 74 77 78 80 80 81 81 78 76 77 79 78 77 78 77 74 76 75 73 71 70 70 71 70 75 72 75 73 72 73 72 71 71 66 58 72
67 66 68 81 78 77 77 76 77 76 79 82 81 80 76 74 76 76 77 78 77 75 75 75 74 73 72 72 73 70 70 73 72 76 77 54 56 71 70 72 74 73 75
58 64 60 84 79 78 78 77 78 78 78 80 82 80 76 76 75 74 76 76 76 76 74 73 71 71 72 72 74 72 73 70 74 72 54 54 49 72 70 72 74 76 74
63 66 67 83 81 79 79 79 77 80 78 78 79 78 76 75 75 75 75 74 75 74 72 71 70 70 71 71 74 74 72 74 72 62 60 64 54 70 73 70 71 75 68
63 63 73 82 79 80 80 80 77 80 78 80 80 78 76 76 73 72 72 72 73 72 71 70 70 70 72 71 74 74 75 72 70 60 63 66 59 74 73 67 69 71 74
59 61 62 82 80 79 79 79 80 80 78 81 79 76 75 73 71 71 72 73 72 70 69 69 68 69 70 72 77 75 75 72 57 64 60 63 61 77 73 68 68 68 72
55 62 62 78 80 82 78 78 79 81 79 80 78 76 75 73 72 72 72 70 68 67 67 68 69 72 73 74 77 72 73 74 57 60 64 59 78 79 75 72 70 73 74
60 61 68 68 73 80 81 80 80 82 80 78 78 76 76 75 74 72 71 70 68 68 69 70 70 72 72 73 74 70 71 71 62 68 59 64 84 79 77 74 70 73 73
63 64 69 71 72 69 63 79 75 78 77 75 75 77 76 72 70 69 72 74 72 72 71 71 72 70 73 74 74 71 69 69 55 60 57 65 82 78 72 75 72 72 73
68 69 66 63 69 73 70 68 75 74 74 74 72 72 69 57 59 60 73 73 70 68 69 73 71 74 78 74 76 75 71 53 55 54 54 80 80 73 71 70 73 75 71
63 64 67 68 69 65 64 68 70 62 55 59 62 64 60 65 65 64 65 77 70 68 71 78 81 73 62 51 51 61 48 55 53 57 50 85 78 71 72 72 72 73 73
60 59 63 67 71 66 76 74 72 64 63 62 69 66 69 65 63 56 56 54 54 66 52 55 56 53 62 58 57 54 55 58 51 51 58 82 80 73 69 74 72 74 72
62 63 61 65 72 73 82 65 77 66 67 59 62 74 74 63 65 67 59 63 74 58 62 63 56 66 63 63 58 60 58 55 51 52 57 80 82 79 70 70 73 72 72
62 62 64 69 75 75 76 66 64 73 58 57 65 68 64 64 72 70 68 67 68 64 61 64 67 66 66 58 58 61 58 62 61 52 54 72 80 80 74 74 72 72 71
62 63 64 71 75 75 75 80 74 72 68 64 64 63 72 69 71 86 73 81 62 64 60 66 68 65 63 60 57 59 58 56 65 65 52 55 78 78 78 76 74 74 72
64 62 65 69 73 77 79 81 74 68 66 59 60 70 72 74 83 74 88 85 64 67 73 68 68 65 59 57 60 56 56 60 56 66 60 56 55 73 78 76 80 79 75
65 69 66 58 64 71 74 79 68 67 64 63 63 68 73 75 74 79 88 82 72 69 63 64 64 62 61 60 61 58 57 56 62 62 57 58 56 49 63 76 78 80 78
67 71 71 70 69 75 80 81 72 75 72 74 68 68 74 78 77 87 84 80 77 66 82 67 65 70 64 60 58 55 54 55 57 47 58 59 58 56 49 69 81 80 72
64 69 72 69 75 82 89 86 83 84 89 67 68 68 76 79 73 74 76 76 74 80 68 70 79 71 69 66 59 54 56 53 52 51 51 46 46 54 57 65 60 56 79
64 69 73 75 79 73 69 69 72 62 69 67 66 74 76 76 76 81 83 78 76 70 72 77 71 76 61 68 64 50 54 55 51 49 45 40 41 42 49 58 61 60 55
63 70 74 77 79 84 69 76 67 69 67 63 66 75 73 72 76 76 77 72 74 64 77 76 79 66 65 68 65 69 51 53 49 45 42 34 44 38 42 50 58 65 64
63 70 73 78 79 79 77 75 79 75 74 70 70 68 70 72 76 76 75 70 74 68 58 72 71 78 64 71 76 65 55 51 52 47 50 39 45 40 42 48 55 59 60
59 63 71 76 79 77 82 78 82 69 67 63 70 68 70 75 72 72 74 71 74 62 72 68 68 73 76 66 65 68 72 68 55 49 42 41 39 36 46 40 43 49 51
53 59 65 76 80 79 83 81 75 76 65 66 70 79 81 80 74 67 69 70 73 63 74 72 76 78 67 64 62 64 68 62 70 56 47 42 39 40 40 40 41 40 45
50 55 61 76 83 80 82 82 84 81 77 72 74 68 66 68 65 70 65 70 72 71 72 66 73 75 73 71 68 65 56 51 50 53 52 52 52 45 44 40 40 41 42

GFSSE_sfc_rhum_006.txt.gz
RH
79 60 81 82 78 78 76 73 78 78 82 83 83 82 80 80 79 79 79 79 77 77 76 75 73 71 71 71 72 72 71 73 70 73 72 73 72 71 68 68 69 39 72
63 59 82 76 76 78 76 75 77 80 80 80 82 79 77 76 77 78 78 77 75 74 75 74 73 72 72 71 70 70 67 70 71 73 69 67 70 71 68 66 67 54 70
50 52 58 80 79 73 74 77 77 79 77 80 78 74 72 75 76 77 77 75 75 74 74 72 70 70 70 70 71 70 70 68 65 68 68 37 42 66 69 70 70 70 72
38 39 45 82 76 73 73 75 75 73 73 77 75 73 73 74 73 75 74 74 74 73 71 71 70 70 69 70 71 70 70 69 66 62 45 35 33 70 70 72 74 73 72
42 41 54 77 74 73 73 76 78 77 76 77 74 73 72 72 74 74 73 73 73 72 70 69 69 70 70 70 72 74 70 67 66 60 47 45 38 62 68 72 74 71 66
43 46 65 71 73 72 75 76 77 77 76 77 74 73 72 74 72 71 71 72 71 70 69 68 68 68 68 70 72 71 70 67 67 50 47 53 45 72 68 67 66 71 78
38 42 45 79 76 74 76 76 77 74 76 76 76 74 74 71 70 70 71 71 69 67 68 66 67 69 70 72 74 70 70 67 49 51 54 46 48 72 66 71 65 69 75
38 44 48 77 80 79 78 78 79 76 76 77 75 74 73 70 70 70 70 68 66 65 65 66 68 69 69 71 72 68 69 69 46 51 50 52 75 74 70 70 68 69 74
38 43 47 48 67 78 78 78 77 76 74 73 74 73 72 71 69 69 66 65 66 67 68 67 67 67 68 69 69 68 66 65 49 47 40 49 80 74 76 73 72 74 73
40 42 51 54 55 55 56 77 76 74 70 70 72 72 72 70 68 67 68 70 69 66 67 69 67 68 71 72 72 72 69 69 38 38 50 50 76 74 72 73 70 71 72
43 43 44 46 57 58 52 57 69 71 71 71 69 71 66 40 44 47 67 70 70 66 67 68 68 72 70 71 71 71 72 35 38 37 38 77 75 72 71 74 72 73 73
47 44 42 44 54 50 42 56 56 48 43 44 44 50 43 46 48 48 58 71 68 67 68 71 70 68 65 35 38 54 33 39 39 39 38 79 73 70 71 72 71 76 71
43 42 48 47 53 50 50 46 45 43 42 45 54 53 46 46 45 40 40 41 42 60 39 46 46 38 48 43 40 40 41 40 33 35 54 76 75 71 69 75 72 75 72
43 43 43 46 54 51 69 46 44 41 42 41 44 58 55 48 48 52 42 46 52 40 48 47 40 52 51 49 44 43 39 40 34 34 47 76 76 75 70 71 74 75 72
43 43 43 48 61 58 62 46 44 46 42 39 42 50 46 43 62 51 55 55 54 45 42 48 49 50 53 46 44 43 37 38 42 38 37 72 74 74 75 71 71 74 73
43 44 43 49 56 58 59 62 54 48 43 42 40 43 57 47 68 49 50 48 48 46 44 48 54 54 51 45 43 42 40 35 41 46 36 41 72 73 73 73 72 74 72
42 43 45 50 52 61 62 60 55 45 43 41 41 52 56 62 66 62 49 51 48 56 63 55 57 52 44 41 42 37 38 40 38 44 40 34 40 74 72 72 79 80 77
44 49 49 42 46 55 58 56 50 45 44 43 41 44 61 60 62 60 50 49 47 52 52 48 51 47 41 40 39 38 38 38 42 42 39 40 34 31 65 72 71 78 78
46 51 54 52 50 55 61 55 54 54 71 68 50 52 54 59 58 57 52 50 58 52 72 64 48 50 43 38 36 33 38 38 39 30 42 44 44 38 32 73 70 72 68
45 51 56 51 58 62 76 75 62 58 51 46 46 60 61 66 58 64 54 57 58 68 51 50 61 46 49 43 36 34 40 38 38 36 36 32 38 40 40 51 45 47 70
45 53 59 61 64 74 65 52 50 46 48 48 48 59 61 59 60 63 51 60 61 58 56 57 50 52 41 43 42 35 39 42 40 37 34 28 33 32 40 45 46 47 49
46 53 60 63 67 71 53 56 49 49 42 48 45 57 58 57 63 61 64 58 62 45 60 57 58 45 41 43 45 42 37 39 36 32 32 28 33 27 32 40 48 57 52
45 54 59 66 67 72 66 60 61 58 60 52 50 56 60 62 63 67 65 56 60 51 37 55 54 57 42 49 56 46 39 36 35 35 40 31 36 30 31 34 41 45 48
43 47 57 64 69 67 71 62 72 54 49 41 44 41 49 60 59 62 63 60 57 42 54 52 48 54 59 45 42 46 56 56 39 36 33 33 32 31 39 30 30 37 41
40 44 51 64 70 69 70 72 60 67 44 42 42 58 66 62 61 54 62 57 56 46 58 59 58 62 48 46 41 41 51 41 49 41 36 33 32 32 33 32 32 29 35
37 41 47 62 73 70 69 70 73 66 62 46 53 49 45 43 50 60 61 59 56 52 58 55 59 60 59 55 46 49 39 39 37 38 36 39 38 35 33 33 34 30 30

GFSSE_sfc_rhum_009.txt.gz
RH
72 58 81 76 72 74 75 77 79 82 83 84 83 83 83 82 81 80 81 78 76 78 74 73 72 72 70 70 71 70 71 71 72 70 71 71 71 70 66 65 64 46 73
57 55 77 74 75 75 76 79 81 80 81 83 82 81 79 78 77 80 78 74 74 74 73 72 71 71 70 70 70 68 67 67 67 67 67 68 69 68 67 67 66 56 70
43 46 56 76 76 78 76 79 79 78 77 78 77 76 74 75 77 76 74 74 74 73 71 70 70 70 70 70 69 69 68 66 62 61 63 63 50 68 68 68 69 72 71
36 38 45 80 77 77 76 75 76 72 72 74 74 73 73 73 74 73 72 72 72 71 70 68 68 69 70 71 71 69 67 64 64 64 56 45 43 70 70 72 72 71 72
42 42 56 77 73 73 75 75 76 74 73 73 73 72 71 71 73 70 70 71 71 70 68 68 68 68 68 70 71 69 66 64 62 61 58 43 60 62 69 72 72 71 68
40 43 65 72 71 72 76 77 76 76 76 75 72 71 71 72 69 68 70 69 68 68 67 67 67 68 69 70 70 68 66 64 65 68 56 41 50 69 69 65 70 72 72
38 39 46 74 72 73 75 77 76 75 75 74 72 71 72 68 67 68 68 66 65 66 66 66 66 68 68 69 70 67 67 65 58 50 51 66 53 71 65 69 69 72 74
40 37 47 72 73 74 75 76 74 74 74 75 73 72 70 68 67 68 64 64 64 64 65 66 64 65 67 67 67 65 66 67 60 74 58 53 75 71 69 69 65 72 74
36 40 45 48 65 76 76 75 74 74 74 74 72 72 69 68 67 64 60 61 65 66 66 66 65 65 66 67 67 66 67 67 60 43 52 76 80 72 70 71 72 71 72
38 36 43 47 49 56 57 75 72 72 70 68 70 69 68 68 66 63 60 67 65 64 65 65 64 66 67 69 68 68 68 68 55 52 60 56 79 71 72 71 73 74 74
44 40 35 37 58 54 55 62 72 71 67 68 67 69 65 56 59 52 64 65 66 65 66 65 66 67 66 69 67 66 68 46 32 55 58 81 74 71 71 72 70 71 73
42 44 40 51 44 47 36 59 55 46 43 45 44 53 46 51 51 42 54 66 66 66 66 67 67 68 68 60 44 57 33 36 35 38 68 80 72 72 73 73 71 74 73
32 33 40 56 62 45 59 42 41 40 39 40 47 46 42 42 45 47 77 60 50 63 68 63 66 63 42 39 36 34 34 36 29 31 70 76 70 68 69 74 72 76 73
36 36 38 47 61 56 55 37 36 34 34 35 40 53 55 45 48 45 67 64 63 66 48 57 57 44 45 45 39 39 34 30 28 31 65 77 74 72 69 71 75 75 73
33 34 35 41 51 53 57 38 39 38 33 33 36 45 44 40 62 55 63 45 49 54 64 54 61 47 48 55 54 39 35 33 30 29 32 76 73 72 73 70 74 75 75
33 34 34 40 51 57 52 56 48 43 50 34 35 38 54 47 73 48 71 66 59 48 68 54 63 52 64 60 46 37 36 32 36 38 30 49 75 72 72 73 72 74 77
33 35 37 40 44 54 56 58 49 39 35 38 34 43 47 52 55 61 55 54 42 62 57 66 69 60 69 32 34 32 31 33 32 39 35 28 52 76 71 70 78 78 78
35 40 40 33 38 48 57 55 46 41 52 48 48 62 51 55 61 61 52 58 62 49 67 56 59 68 36 33 33 32 32 33 38 37 35 35 30 30 70 75 69 77 75
37 42 44 42 40 48 62 50 49 54 44 66 51 42 72 67 64 56 50 58 56 64 51 53 50 68 38 35 32 28 32 33 34 28 35 36 40 35 31 75 74 71 68
36 41 47 43 52 56 56 72 46 42 46 46 44 39 50 54 58 57 52 55 59 54 51 83 63 44 45 41 32 29 34 34 34 32 33 28 34 35 39 44 52 56 70
36 43 51 56 64 55 53 76 52 46 46 41 38 67 59 59 61 63 56 63 57 59 71 52 47 49 39 40 40 35 34 38 35 33 29 28 31 29 36 40 42 46 65
38 45 56 61 67 65 57 63 52 56 44 36 40 53 52 70 60 63 64 51 55 46 52 54 56 46 37 41 43 38 37 43 50 29 30 28 32 26 31 38 45 54 57
38 46 55 65 68 68 68 63 58 62 49 49 42 50 49 57 56 62 62 62 58 52 32 55 52 54 43 42 52 46 39 41 43 40 40 31 35 30 31 35 39 42 45
37 42 53 63 68 66 72 61 74 57 48 37 39 36 44 58 54 55 60 54 59 42 56 51 45 56 56 44 39 40 51 52 42 37 43 34 33 31 38 32 28 37 38
33 38 47 63 71 69 73 73 56 64 41 36 33 52 57 62 51 46 53 54 55 43 55 58 54 62 50 45 38 37 52 39 47 39 37 34 31 31 32 32 31 29 33
31 35 43 65 74 73 72 73 74 70 60 41 44 42 43 43 48 53 50 57 56 50 53 53 58 58 60 56 47 47 37 37 36 36 36 40 35 33 30 32 33 33 30

GFSSE_sfc_rhum_012.txt.gz
RH
90 80 79 74 75 79 78 81 83 84 85 85 85 85 84 84 84 83 82 82 81 79 78 78 77 73 71 71 71 70 72 72 71 71 70 70 70 68 68 64 62 60 74
65 66 79 77 74 78 82 83 84 84 85 84 84 83 82 83 83 82 80 79 79 77 76 75 74 72 71 70 70 69 68 65 69 68 67 67 65 69 68 67 67 66 72
54 59 64 79 77 77 81 82 83 82 82 82 82 81 81 81 80 79 78 76 76 74 72 72 72 71 72 70 69 69 67 65 63 61 68 70 64 69 70 69 72 72 72
46 49 57 82 79 79 81 81 79 78 78 80 79 79 79 80 78 76 73 72 72 72 70 70 70 70 71 71 70 68 65 64 64 62 72 65 48 70 72 73 73 71 73
45 51 65 81 80 79 79 80 78 78 77 78 78 77 77 77 75 72 71 70 70 70 69 69 69 69 69 70 68 68 65 63 67 65 64 69 62 67 72 73 71 72 72
44 50 71 78 77 78 79 78 78 78 77 77 76 75 76 73 69 71 70 67 66 67 68 69 69 69 69 70 69 67 66 64 65 70 68 66 65 71 72 70 71 70 73
44 51 59 78 78 79 80 80 78 77 76 76 75 74 71 69 68 69 66 64 65 66 67 68 66 67 67 67 68 66 66 65 69 78 68 70 72 76 70 73 72 73 74
41 44 57 75 78 79 79 78 79 76 75 75 73 72 70 67 67 66 62 62 63 65 67 67 65 66 66 64 66 68 68 67 69 80 82 80 78 75 70 68 72 74 73
36 47 57 60 70 76 80 77 76 75 76 74 72 71 69 67 66 65 63 61 64 64 65 66 63 64 65 65 68 68 72 75 78 96 76 83 81 74 71 68 68 75 70
39 44 55 61 62 69 68 75 74 74 72 71 71 69 68 68 67 67 67 69 64 63 64 64 64 64 65 67 68 68 72 71 81 80 86 72 81 73 71 74 74 73 72
42 44 46 49 63 70 68 67 73 72 69 69 68 70 72 63 62 64 70 68 66 65 63 65 67 69 70 71 75 77 72 59 83 86 86 84 80 74 71 72 74 74 75
45 43 47 55 56 60 47 74 73 62 56 61 60 70 67 92 71 56 64 65 69 71 62 68 72 69 72 60 66 68 57 50 62 79 87 74 78 72 72 74 75 75 75
43 40 47 53 60 53 68 65 59 55 55 57 68 69 65 72 64 89 89 95 90 79 85 68 71 74 65 55 53 51 49 48 51 61 73 82 79 73 71 74 75 76 74
44 47 48 51 66 71 61 53 53 50 52 50 57 69 72 66 69 81 96 90 90 85 97 80 74 63 61 68 60 52 49 44 42 55 76 80 78 70 71 74 74 76 75
39 44 50 58 74 75 71 60 58 58 49 52 63 65 60 68 79 88 75 69 80 83 64 72 73 71 72 66 63 58 47 51 47 48 77 80 78 72 74 73 74 75 76
37 44 51 58 68 76 73 74 73 63 61 58 54 65 69 69 79 70 71 71 72 75 70 73 75 74 73 67 64 50 47 48 50 51 53 76 80 78 78 76 76 76 76
36 40 50 53 57 66 71 69 68 66 48 53 58 70 70 74 73 76 76 80 79 75 70 80 74 82 71 63 59 49 50 49 54 51 52 52 72 80 80 81 79 80 79
37 47 49 36 53 61 67 72 63 57 67 68 60 63 66 69 72 77 79 89 83 77 83 83 77 75 72 63 60 57 54 51 50 53 51 49 59 56 78 80 79 78 77
41 51 52 51 54 64 72 66 67 68 73 71 68 70 71 77 74 79 72 82 78 78 74 76 75 83 73 64 51 53 53 54 52 39 49 51 51 57 62 78 80 80 73
41 51 55 52 63 70 71 77 68 57 70 69 71 69 82 79 73 83 72 74 76 76 74 81 79 70 69 68 44 47 58 58 56 57 48 40 48 50 65 65 80 76 79
41 52 59 62 71 68 70 67 66 69 68 61 65 69 74 70 73 76 75 77 77 80 72 72 69 72 70 69 69 67 67 58 58 55 50 51 50 48 54 62 67 86 87
42 52 64 66 74 72 69 74 70 68 66 64 62 76 72 71 78 75 83 84 80 79 78 75 72 76 72 72 71 75 71 67 55 44 53 49 49 50 53 54 67 69 82
44 55 63 70 73 74 73 74 81 87 75 73 65 71 69 73 75 82 78 80 80 71 74 78 74 71 76 76 66 74 78 77 72 64 60 57 54 58 58 60 58 60 60
42 49 62 70 74 74 75 75 79 68 73 63 70 65 67 70 70 72 76 79 80 77 82 78 70 75 78 77 76 62 68 70 76 72 67 61 58 53 59 57 57 58 55
38 46 56 71 76 75 78 77 74 74 62 62 61 70 79 82 73 71 77 78 78 73 79 74 75 78 79 79 75 74 75 75 72 70 71 69 66 59 63 63 55 55 60
35 44 51 72 78 76 78 79 81 77 72 64 64 69 67 69 67 71 70 79 78 74 80 76 75 73 76 80 79 79 73 70 70 71 74 68 64 65 59 55 62 63 56

GFSSE_sfc_rhum_015.txt.gz
RH
91 84 80 77 75 77 80 84 86 86 86 86 86 86 85 85 84 85 84 82 81 80 76 74 72 71 71 71 71 71 73 73 72 71 71 69 68 70 69 68 73 68 72
82 82 80 77 76 80 82 85 86 85 86 86 85 85 84 82 81 83 82 79 79 78 74 73 72 72 71 70 69 68 69 72 71 69 67 65 67 69 71 66 72 67 69
76 76 75 81 80 80 84 85 84 84 85 85 84 84 84 80 80 80 78 77 77 76 72 71 72 72 71 70 68 66 68 68 66 71 69 77 72 70 71 71 73 71 72
70 73 76 83 82 82 84 84 83 80 80 83 83 83 82 80 80 77 74 74 74 74 71 70 70 70 71 70 69 67 67 67 65 64 77 72 61 68 72 73 73 71 71
65 70 76 82 82 82 81 82 82 81 79 81 81 82 81 80 76 74 73 72 71 73 71 69 69 69 70 70 68 69 70 69 66 68 69 70 78 68 72 72 73 73 76
68 75 80 81 78 80 81 81 80 80 79 80 80 80 79 78 73 72 70 69 68 69 70 70 69 68 69 69 68 68 69 69 68 75 72 71 74 70 69 70 72 74 75
71 74 77 82 83 82 81 80 81 78 77 80 80 79 78 76 72 70 68 67 67 67 68 68 66 68 66 67 68 68 70 70 90 80 83 82 81 77 73 72 72 74 76
68 71 73 80 82 83 79 79 82 79 78 80 80 78 77 76 76 73 69 66 65 65 66 67 67 67 67 68 71 73 71 77 77 84 95 86 83 76 72 71 73 74 75
58 68 76 76 76 79 83 80 79 80 79 79 80 78 76 74 71 70 70 68 65 64 65 66 67 71 72 72 74 75 72 76 85 92 89 91 83 74 65 72 74 73 75
60 68 73 80 82 88 81 77 76 77 77 76 77 74 74 69 67 68 75 74 64 63 65 67 72 73 73 76 75 75 71 81 89 85 86 90 80 74 68 69 73 72 73
61 67 71 76 83 87 85 77 77 75 75 76 76 76 78 81 78 75 79 72 66 66 70 70 76 75 75 77 76 72 68 90 86 91 86 85 80 72 73 74 74 74 74
64 65 67 71 77 78 67 85 89 80 82 83 82 83 84 84 89 78 78 70 66 72 72 66 76 76 71 76 75 73 68 72 79 84 92 84 81 73 72 72 75 76 76
55 55 62 68 71 70 68 83 87 84 81 77 77 80 82 86 92 95 90 93 94 70 85 84 83 81 74 66 63 52 53 69 84 80 78 80 80 75 73 73 76 74 76
54 56 60 65 69 75 76 78 77 73 72 77 79 79 83 96 94 93 94 95 96 91 90 94 92 77 73 64 62 59 50 50 75 80 86 83 81 78 74 76 75 76 74
57 55 58 64 73 74 72 70 69 67 66 64 69 78 72 82 95 92 95 96 97 94 94 90 85 70 75 71 65 63 48 47 50 76 92 81 81 80 77 75 76 76 76
54 57 59 69 73 80 81 79 73 63 58 64 66 70 71 80 85 88 88 84 92 88 78 78 76 79 76 77 74 61 49 49 53 61 83 84 79 78 81 78 76 76 77
52 56 61 68 74 76 81 77 73 70 58 58 68 74 73 73 80 82 84 92 85 81 83 80 73 80 74 65 74 62 54 55 52 51 60 83 81 77 80 80 81 81 79
50 59 63 52 67 76 78 82 73 69 71 72 73 75 77 80 76 82 91 90 83 82 89 87 84 82 80 80 68 63 50 56 48 47 54 73 81 71 77 76 79 79 79
52 63 61 57 62 72 79 81 76 73 79 75 77 77 77 81 81 83 88 87 81 93 84 83 80 82 74 70 58 60 65 56 53 44 55 50 55 75 80 76 79 80 71
56 58 55 64 62 67 83 82 81 82 81 77 77 74 83 84 82 88 84 90 85 88 86 83 77 76 74 74 59 56 65 61 56 64 52 46 56 68 73 71 78 85 79
55 58 59 70 70 69 79 84 91 92 85 78 68 73 83 84 84 89 89 85 79 88 76 73 81 75 78 74 70 70 75 56 60 58 54 52 51 60 63 78 82 90 89
56 55 63 64 84 71 74 78 83 80 82 75 78 84 82 78 85 81 89 89 88 89 84 74 75 84 82 76 70 85 76 63 65 47 54 47 58 59 62 67 68 84 93
52 63 62 62 82 78 78 78 88 92 89 85 78 83 77 78 85 84 88 90 83 79 82 77 77 80 80 81 68 77 82 87 70 70 54 54 58 58 64 66 59 63 90
52 60 63 68 77 78 81 77 85 86 88 82 76 73 80 85 84 84 84 88 84 84 86 80 77 78 87 81 84 70 75 72 80 67 68 57 56 53 57 66 65 58 83
46 54 68 68 70 73 83 75 82 87 73 78 83 72 91 92 83 81 86 88 79 78 88 82 77 78 85 91 87 86 78 86 75 74 79 63 64 60 59 57 67 64 64
45 55 66 74 75 79 74 87 84 82 84 76 80 95 83 75 87 88 85 80 77 79 86 81 82 83 87 89 88 89 84 76 77 77 83 75 67 63 66 63 51 59 67

GFSSE_sfc_rhum_021.txt.gz
RH
93 84 77 78 77 81 82 83 85 86 86 85 84 82 80 78 78 79 78 76 76 75 74 74 74 73 71 72 72 74 73 72 71 67 69 71 74 75 71 74 71 69 75
85 83 80 78 79 82 83 84 84 86 84 82 82 80 77 77 78 78 76 76 75 75 74 73 73 73 72 73 73 72 73 74 70 66 66 70 75 75 74 73 68 68 70
79 81 79 82 81 80 83 84 82 82 81 81 80 78 77 77 77 76 75 74 74 72 72 74 73 72 72 71 70 69 68 70 72 68 72 83 76 71 73 68 70 71 73
82 88 86 83 83 80 82 82 82 79 79 80 79 78 78 77 75 74 73 73 73 72 71 71 72 72 72 72 72 70 70 69 70 70 84 76 66 73 71 69 73 72 72
83 90 84 82 83 79 79 80 81 81 78 78 78 77 77 76 74 73 72 72 72 72 71 71 71 71 74 70 66 67 68 72 72 74 77 83 85 71 72 70 71 73 74
86 89 79 80 78 77 77 78 78 78 78 78 77 76 76 74 72 71 70 70 70 70 71 69 70 70 73 69 67 67 75 70 75 82 77 80 84 71 72 70 74 74 77
93 86 79 82 80 78 76 76 75 75 78 79 77 75 75 72 71 69 68 68 68 70 70 68 69 70 69 68 70 69 74 76 85 87 88 88 82 75 72 72 74 75 75
87 85 82 79 78 78 76 76 75 75 77 78 76 75 75 74 70 69 67 67 68 68 69 69 69 69 67 68 75 74 70 74 81 90 89 92 86 76 73 75 72 70 74
83 88 85 79 74 75 77 76 76 74 76 77 76 75 74 74 70 68 66 67 65 66 66 68 68 68 68 69 71 74 72 78 93 95 84 92 85 75 71 72 74 70 70
87 89 95 91 83 87 82 75 75 75 75 76 75 74 74 71 68 67 73 71 67 64 68 71 71 69 69 69 71 74 70 69 90 86 84 87 86 73 70 70 73 74 69
86 93 96 96 96 97 94 82 77 76 75 75 76 74 79 88 85 79 73 69 66 67 67 64 65 72 72 72 74 73 72 94 87 89 87 80 83 68 69 72 72 75 74
90 93 92 97 97 97 81 91 93 88 90 93 92 92 93 91 92 84 78 70 66 70 61 71 72 72 74 77 73 73 88 86 82 86 86 75 79 68 69 71 72 74 76
84 86 90 94 97 94 88 98 99 98 98 98 95 95 94 92 96 95 92 93 91 70 73 72 81 80 79 80 72 70 82 77 86 81 76 80 79 74 69 72 73 73 75
83 82 86 90 95 95 96 97 98 96 98 98 96 93 94 97 97 97 96 93 94 91 84 92 94 80 80 76 73 70 81 78 88 86 89 81 81 75 73 72 75 74 74
81 79 84 87 92 92 95 97 99 99 98 92 89 89 93 94 97 96 95 96 96 95 91 88 92 86 85 81 75 73 64 82 88 87 93 76 80 79 73 74 74 72 73
74 78 80 83 86 87 87 94 95 97 94 88 83 82 86 96 95 96 95 97 96 94 85 92 93 84 76 76 67 72 74 62 82 87 87 88 80 80 79 72 74 76 72
70 73 78 81 81 85 85 89 90 89 83 84 75 73 85 91 90 93 95 97 93 96 92 95 88 89 73 69 58 63 65 66 74 83 85 87 86 76 80 78 78 78 75
66 70 73 69 78 81 82 87 79 80 83 77 68 87 84 87 88 94 98 97 92 97 97 93 94 89 79 65 61 70 64 65 61 68 82 85 86 78 78 77 80 80 74
62 69 72 72 77 80 82 84 82 84 80 75 83 88 87 87 90 95 95 92 91 95 91 90 88 88 69 74 69 68 75 69 58 58 66 78 87 84 81 76 78 80 70
59 65 69 70 75 78 81 83 84 86 87 85 88 89 89 88 88 93 92 93 91 95 94 92 86 85 79 83 71 66 74 68 75 69 60 73 86 85 85 81 87 87 79
60 66 68 71 74 76 86 93 95 83 93 93 89 86 85 88 90 90 92 94 94 94 91 88 88 78 81 87 69 73 82 72 67 65 70 87 81 84 84 86 94 92 83
60 65 69 68 70 74 73 74 84 87 90 87 89 86 87 88 91 89 93 95 96 96 92 90 80 86 91 88 80 90 84 71 70 60 67 69 86 87 86 89 94 94 94
58 66 70 69 68 71 71 78 96 95 96 95 93 92 87 86 87 89 92 96 96 93 90 84 80 84 80 89 82 82 91 85 87 78 63 62 84 88 86 89 91 93 91
56 62 66 68 68 70 73 75 71 75 79 96 92 91 85 87 81 90 91 94 96 98 90 82 82 86 82 84 93 82 85 84 78 73 79 69 69 66 81 79 84 91 93
53 61 66 69 68 68 72 68 71 70 69 92 94 89 95 95 89 87 90 93 87 96 90 82 89 92 88 82 86 89 90 94 79 82 79 75 79 75 70 79 76 77 94
50 59 66 73 71 69 73 71 72 70 79 92 95 94 97 98 98 93 89 93 88 89 87 84 89 88 94 93 94 95 88 73 84 80 85 86 82 73 78 75 72 76 85

GFSSE_sfc_rhum_024.txt.gz
RH
91 85 78 72 77 78 81 81 84 85 84 84 84 82 78 77 77 78 77 76 75 75 75 74 71 71 70 70 73 71 71 70 68 70 71 74 74 72 73 72 75 67 76
81 82 79 75 80 80 83 84 85 84 83 83 82 80 78 78 77 76 76 75 76 76 73 73 72 72 70 71 72 73 72 70 66 68 70 71 74 73 74 69 71 69 76
81 84 80 82 80 82 83 84 82 80 79 80 80 78 76 76 76 75 74 74 73 72 75 72 72 70 72 70 68 69 70 72 68 69 72 76 72 74 70 67 69 70 73
82 89 85 83 83 81 82 83 81 76 78 79 79 78 77 76 74 73 73 73 74 73 72 74 71 71 71 69 70 70 68 72 68 70 79 71 66 72 68 74 72 74 75
85 90 87 82 83 80 79 81 82 79 77 78 77 77 76 74 73 72 72 73 73 73 72 71 71 68 68 66 66 68 70 70 71 73 75 81 74 69 70 72 72 73 76
87 88 81 80 77 78 78 80 79 77 76 77 77 76 75 73 71 71 71 71 72 72 70 70 70 70 66 65 65 68 72 72 72 77 77 79 79 72 68 72 74 76 76
95 91 78 81 80 78 77 78 77 77 77 77 77 76 74 72 70 69 69 70 71 71 70 69 69 68 67 67 64 69 73 72 84 84 83 82 77 76 71 74 74 75 76
88 88 84 79 78 77 76 75 76 77 78 77 75 75 73 71 70 69 68 69 69 69 69 68 69 68 66 70 72 71 74 70 74 86 84 85 81 75 72 73 74 74 76
86 91 90 81 78 76 75 75 74 76 77 77 75 74 74 72 68 66 67 68 67 68 68 67 68 68 67 67 74 72 73 78 85 87 80 89 84 75 74 71 71 69 75
92 89 93 89 84 88 82 75 74 74 76 76 75 74 72 70 66 66 72 72 69 67 65 68 68 69 69 69 68 74 70 77 84 82 81 83 86 72 71 67 75 66 76
94 98 96 93 93 94 91 82 76 74 74 74 74 73 77 86 83 76 73 68 67 67 66 63 65 71 71 72 71 69 70 84 77 79 75 76 84 69 68 70 70 68 71
94 98 97 96 95 96 83 92 91 86 86 88 88 89 90 89 90 82 78 70 67 70 58 72 73 71 74 70 66 74 89 80 74 76 77 76 80 68 66 71 70 74 73
90 92 96 97 96 96 92 96 96 95 94 94 93 92 92 90 93 93 89 90 89 75 73 76 80 76 76 72 68 70 78 78 74 72 66 76 78 70 67 69 70 73 74
88 90 93 95 97 98 96 96 96 96 96 96 95 93 93 95 93 94 94 89 91 89 81 88 88 81 78 74 64 68 71 68 73 72 75 79 78 75 71 71 71 73 73
87 87 91 94 97 97 97 98 98 98 96 94 92 91 92 89 94 94 94 93 93 92 87 86 87 81 82 76 73 65 64 71 72 73 80 76 79 79 72 72 74 73 70
81 83 86 92 94 96 95 98 97 97 96 93 89 87 88 96 93 94 94 94 94 95 88 91 88 81 79 74 71 73 69 63 74 77 74 73 78 79 77 71 72 74 71
76 78 85 88 90 95 94 95 97 95 90 92 87 85 85 92 93 92 93 93 92 95 91 89 83 85 75 65 66 65 64 65 67 77 76 73 71 74 77 74 75 74 74
75 82 84 74 84 91 92 94 92 92 91 88 87 82 84 88 90 93 95 95 90 94 93 89 89 85 78 70 70 71 68 66 64 75 75 75 76 66 71 76 79 79 71
73 80 84 83 83 88 90 94 92 89 87 84 87 87 88 88 90 96 91 91 90 94 88 86 84 85 74 73 68 70 72 69 67 54 64 71 74 74 70 75 79 80 68
71 76 80 81 85 88 87 93 92 91 90 87 86 87 90 89 88 92 90 93 90 91 88 87 85 80 78 80 62 68 74 70 72 67 61 66 75 75 72 74 77 77 76
69 75 79 83 86 87 91 95 95 88 90 90 88 89 90 90 90 92 91 93 89 92 88 85 83 78 76 81 73 72 75 69 64 65 73 76 76 74 72 75 77 77 78
68 73 80 81 83 85 84 84 88 87 90 87 87 88 89 89 90 88 92 92 92 91 89 88 82 80 82 79 78 78 77 70 64 60 69 70 77 75 73 78 82 81 81
66 73 77 80 81 82 83 85 95 94 94 91 89 90 87 89 89 90 91 93 93 91 88 88 83 81 79 85 78 78 79 76 75 70 66 68 77 76 74 78 79 80 79
59 67 73 77 79 80 83 83 86 81 81 83 86 87 86 88 89 90 90 91 93 92 90 87 81 82 83 82 84 77 79 79 72 68 69 67 65 64 71 70 75 78 79
55 61 69 77 78 80 82 79 82 80 78 88 90 88 90 92 89 87 90 92 92 91 92 88 87 89 82 82 80 80 82 78 76 72 69 66 69 67 64 70 66 70 79
52 58 66 77 79 78 81 80 82 81 85 87 93 88 88 93 90 90 90 90 91 90 92 88 88 89 90 84 82 84 78 74 73 72 73 76 69 67 68 66 67 68 68

GFSSE_sfc_rhum_027.txt.gz
RH
90 93 83 77 79 77 78 80 83 84 84 83 83 80 78 76 77 76 76 75 75 76 76 71 72 71 70 71 70 70 70 68 70 70 72 73 70 71 73 74 70 50 75
70 84 81 77 76 78 81 82 82 84 83 83 80 77 77 77 76 76 75 76 75 73 73 72 71 70 69 71 72 71 70 67 67 70 70 71 71 75 70 72 68 64 75
63 76 74 82 79 80 81 83 83 81 80 80 79 77 76 75 75 75 73 72 73 74 72 71 70 71 69 68 70 69 70 68 67 70 68 52 57 70 66 67 72 74 75
60 61 60 83 82 80 83 83 82 77 78 78 78 77 75 75 74 73 73 74 74 75 71 70 70 69 69 68 67 67 70 69 68 72 55 52 50 67 71 70 73 72 72
58 57 64 82 83 80 81 81 81 79 77 78 77 76 75 74 72 72 73 73 74 73 71 71 69 67 66 65 66 70 71 72 70 59 58 58 51 61 73 72 73 74 68
55 54 72 80 78 79 80 80 77 77 77 77 77 75 74 72 71 72 72 73 74 71 70 69 69 68 64 64 68 66 67 68 70 54 57 62 54 68 70 71 71 75 73
51 58 60 81 80 80 80 78 76 76 76 77 76 74 73 71 70 70 71 71 73 70 68 68 67 67 66 69 63 70 70 71 59 59 58 58 59 71 73 74 74 75 76
52 54 58 77 79 79 77 77 77 76 76 76 76 74 72 71 70 69 70 70 69 68 67 68 67 66 66 71 71 70 73 66 58 61 60 59 71 75 72 73 73 74 75
52 55 56 57 68 76 76 76 77 77 76 76 74 74 73 70 68 67 70 68 67 66 66 66 66 66 66 70 72 72 73 72 60 59 53 56 78 74 71 71 72 75 73
56 55 59 57 56 62 61 74 74 76 76 75 74 72 72 69 67 68 70 71 66 64 65 66 64 64 64 65 71 73 74 76 54 56 56 54 81 73 66 72 66 72 70
61 58 56 55 64 70 66 64 71 72 74 74 70 72 68 55 59 59 70 68 66 66 67 65 67 66 67 69 69 68 70 50 46 46 46 76 82 71 68 72 70 73 69
64 61 56 58 62 64 57 68 68 60 53 57 57 65 59 64 66 65 68 71 69 66 66 73 74 70 60 41 39 61 45 52 47 47 44 74 79 67 66 68 74 68 71
57 58 60 64 69 65 63 62 61 60 59 60 69 67 65 64 66 57 57 55 58 62 46 51 51 48 52 42 40 38 51 54 44 43 54 73 78 70 67 72 69 72 72
60 59 58 62 71 68 63 61 60 61 60 58 59 73 70 60 64 67 61 61 66 55 59 59 51 60 56 56 44 41 43 43 43 44 53 73 74 70 69 68 72 71 74
59 59 60 66 74 73 76 64 63 66 60 57 63 65 60 58 66 65 68 61 63 60 54 59 73 56 69 64 64 48 43 48 48 44 46 74 76 74 69 74 71 74 71
58 59 60 67 72 73 74 77 71 68 62 64 58 58 68 64 69 63 65 62 59 61 58 62 67 61 69 59 55 54 49 44 52 53 44 49 70 73 72 69 72 74 70
58 60 64 68 69 78 76 75 70 64 60 59 57 67 66 68 72 74 64 61 60 67 74 73 67 66 47 46 54 47 43 51 43 52 48 44 47 68 70 69 70 72 74
58 66 66 58 64 72 74 73 67 62 60 57 56 58 65 68 73 74 66 62 62 67 71 63 77 71 55 56 56 50 45 47 55 50 48 49 48 39 61 71 72 71 69
61 66 68 67 66 71 76 71 70 69 64 57 56 56 64 68 70 70 62 61 71 63 63 69 60 62 54 50 52 45 46 48 58 38 48 51 51 48 44 66 74 76 67
59 65 67 66 71 76 72 75 66 62 59 57 56 56 67 66 68 70 62 69 68 62 64 62 71 61 54 53 40 47 47 49 47 46 45 43 52 54 48 56 53 52 73
58 64 70 75 77 74 71 69 65 62 60 60 60 68 70 69 72 76 63 69 69 67 69 73 65 66 52 57 49 50 48 48 46 46 47 43 52 50 52 53 50 49 52
58 65 73 76 80 78 69 71 62 63 56 59 61 69 69 69 74 72 73 68 72 63 77 75 72 57 52 56 50 50 47 46 42 40 49 46 54 43 43 48 59 64 57
58 67 71 78 80 79 76 71 71 68 68 66 65 63 65 70 72 76 75 70 74 70 62 74 70 68 52 60 62 49 48 44 48 44 53 48 55 45 44 49 52 58 61
56 60 69 75 79 76 80 74 81 65 61 57 60 59 61 69 68 70 74 74 76 65 72 72 68 64 63 55 57 55 62 59 44 46 44 49 50 46 49 44 45 50 56
50 55 63 75 80 79 81 78 73 73 59 56 58 72 77 71 70 67 74 75 76 68 74 76 75 74 58 50 51 53 60 53 60 47 44 45 48 44 44 46 41 43 52
47 50 58 75 82 80 80 80 82 79 72 62 67 62 58 57 59 72 71 76 77 73 76 73 76 75 68 61 54 55 46 46 46 48 48 52 45 45 42 41 45 44 43

GFSSE_sfc_rhum_030.txt.gz
RH
89 84 78 78 75 75 78 80 84 84 81 79 79 78 76 76 76 75 74 75 72 73 72 72 71 69 70 69 70 69 68 68 68 72 72 70 72 74 74 70 68 44 75
85 82 80 74 74 76 77 83 84 83 80 80 78 76 76 75 75 75 74 74 75 73 72 71 69 68 70 71 70 70 67 67 69 72 70 69 72 71 72 69 68 60 74
86 69 62 81 79 77 82 82 82 79 78 77 76 76 75 74 74 73 71 72 73 72 71 70 70 68 67 68 68 69 68 67 70 67 65 40 48 66 65 73 74 76 75
51 59 53 82 80 79 80 82 81 76 77 77 77 76 75 74 73 72 72 72 70 71 71 69 68 68 67 65 65 69 69 67 70 68 56 40 37 65 65 71 73 74 75
66 51 58 81 82 80 80 81 80 77 76 77 76 75 74 72 72 71 71 72 71 70 71 69 66 67 65 63 63 68 71 67 67 60 51 59 37 64 70 76 72 71 66
45 45 70 80 78 79 79 78 76 76 76 76 75 74 72 71 71 71 73 72 70 69 69 68 68 66 64 62 61 62 65 69 67 40 47 50 44 69 71 69 70 70 70
40 42 52 81 80 80 78 77 76 76 76 76 74 73 71 70 69 70 71 70 69 68 68 66 66 66 66 65 67 68 66 64 48 42 42 53 48 71 72 72 73 74 75
39 37 48 76 80 81 77 76 76 75 76 76 74 72 71 70 69 69 69 68 67 65 66 66 65 65 68 69 69 73 67 57 47 44 44 44 71 72 72 72 73 74 74
36 35 42 45 64 76 78 76 75 75 75 75 74 72 70 69 68 68 68 66 66 64 64 64 64 65 66 70 70 72 69 64 46 45 40 42 76 72 72 72 75 74 76
37 34 41 43 46 53 54 75 75 75 75 74 72 72 71 68 67 68 69 69 65 63 64 64 63 63 64 65 69 71 75 69 40 43 38 50 76 74 69 66 72 71 70
41 35 35 36 46 52 50 58 71 74 73 73 69 70 68 46 47 49 68 67 65 64 63 66 66 65 64 68 68 70 73 33 33 36 40 81 75 70 69 70 66 72 66
50 36 34 37 42 45 38 54 53 45 40 42 43 51 44 50 51 47 60 68 69 58 66 68 66 63 62 25 32 62 43 37 33 34 41 78 76 71 64 72 70 74 67
44 36 36 41 47 45 45 44 42 40 39 44 54 53 51 48 50 40 43 42 44 54 38 48 49 44 36 28 25 26 31 32 28 30 56 71 74 68 64 67 73 69 70
44 40 37 42 51 48 43 42 39 38 39 37 40 57 56 47 48 50 41 44 48 38 46 43 44 45 40 39 40 29 27 26 26 28 53 72 72 66 68 69 70 72 72
42 42 41 46 57 55 56 42 38 42 39 35 40 48 45 44 52 48 50 43 47 42 40 48 44 46 53 63 44 34 30 33 32 27 37 73 73 70 67 69 71 71 73
42 42 41 47 56 56 56 59 50 46 40 40 37 39 54 48 54 45 47 43 42 42 42 57 50 53 44 41 50 39 30 30 36 35 30 47 69 71 66 68 70 72 71
40 41 43 48 50 59 61 60 54 43 40 38 37 48 53 56 60 64 61 48 43 51 56 56 50 45 42 34 43 32 29 37 33 35 32 32 50 69 68 65 69 74 74
40 46 47 41 46 55 58 57 49 43 42 38 35 39 53 56 62 62 61 47 46 59 49 48 46 43 36 38 38 33 30 35 38 36 33 35 33 37 62 65 66 70 69
42 48 52 51 49 54 61 55 53 53 46 37 36 38 51 56 58 60 49 47 57 46 49 47 45 47 40 37 37 31 30 34 42 26 35 37 39 32 34 68 67 67 64
43 48 54 52 57 62 56 61 50 44 43 39 38 38 49 53 56 59 48 54 51 45 46 47 56 47 43 40 29 30 32 35 31 31 30 28 38 38 34 46 47 58 67
43 51 57 60 66 60 57 54 50 44 43 40 39 48 54 57 60 65 51 57 55 54 64 59 53 58 41 44 34 35 36 35 34 31 28 27 33 31 33 36 36 35 51
44 51 59 63 68 66 56 57 47 45 39 39 40 50 56 56 62 62 68 59 61 48 67 66 66 45 42 36 36 35 37 35 31 28 30 30 32 27 30 35 44 47 45
43 51 58 66 68 68 64 56 56 48 46 44 44 47 53 58 59 65 65 56 65 60 52 66 64 61 41 41 49 40 37 34 33 33 41 31 39 30 32 37 38 45 45
41 45 55 63 68 67 69 61 72 51 47 41 44 44 46 57 56 57 64 62 68 51 60 76 57 56 61 42 42 40 51 51 35 38 34 36 35 34 37 32 34 37 42
38 42 49 63 71 70 73 69 59 64 44 39 39 58 67 61 58 52 60 64 67 57 61 68 66 70 52 39 36 40 47 38 45 37 36 37 37 33 34 36 31 31 39
35 40 46 64 74 73 70 72 73 71 62 45 50 45 45 45 48 59 57 65 66 62 64 64 70 70 64 53 37 42 35 36 35 37 36 40 36 36 33 32 35 33 33

GFSSE_sfc_rhum_033.txt.gz
RH
80 74 72 74 74 75 77 79 80 80 78 77 78 76 76 76 74 74 72 73 74 72 72 71 69 71 68 70 70 66 66 68 72 72 72 74 74 72 70 67 69 47 74
70 74 78 75 74 77 79 82 81 80 77 78 76 76 74 75 76 75 74 74 72 71 70 70 68 70 70 70 70 66 67 69 70 70 68 70 70 71 71 68 69 63 74
73 74 58 79 76 76 80 82 79 77 78 76 76 74 74 74 72 71 72 73 72 71 70 70 68 67 68 68 69 68 67 70 68 70 67 50 47 64 71 74 74 74 74
73 48 43 83 80 79 80 80 79 76 76 77 75 75 74 73 72 71 71 70 71 71 69 68 67 66 65 64 67 69 66 68 65 62 66 41 32 64 69 74 75 74 75
65 51 53 79 80 79 79 79 78 75 76 75 74 74 73 72 70 69 69 70 70 70 69 66 66 65 62 62 64 70 68 64 64 57 51 53 48 63 68 71 70 72 69
51 43 70 78 78 77 77 76 75 74 75 75 73 72 71 72 71 70 69 69 68 68 68 67 66 65 64 62 62 64 65 65 66 58 47 52 52 69 69 69 71 68 71
39 43 53 81 80 78 76 75 75 75 75 74 72 71 70 70 69 70 70 68 67 66 66 65 65 66 67 66 67 64 63 62 44 54 51 44 54 72 71 72 70 73 70
45 36 52 76 79 78 75 75 75 75 74 74 72 71 70 70 70 69 68 67 65 65 65 64 65 66 68 68 70 66 61 60 42 39 57 47 75 73 71 72 74 74 74
33 34 45 49 64 75 76 74 74 74 74 73 72 71 69 68 67 68 67 66 64 64 64 64 63 64 67 68 70 69 62 60 60 40 37 52 78 71 70 73 74 74 74
33 32 40 44 45 53 54 73 73 73 73 73 72 70 69 68 67 66 69 66 63 62 62 62 61 62 65 69 70 72 68 64 59 36 39 55 76 71 68 74 72 72 75
33 31 31 34 43 50 50 59 70 72 72 71 68 71 71 74 56 57 68 64 61 62 62 63 65 64 65 68 73 71 70 63 48 52 45 82 74 69 69 64 74 67 72
35 29 29 34 37 40 34 56 53 46 43 45 53 54 85 57 54 46 56 66 66 58 64 64 61 66 68 41 42 69 79 39 33 40 47 82 74 70 70 67 73 67 66
30 28 29 35 41 38 41 40 39 35 35 38 50 54 70 50 52 88 48 44 54 57 68 71 60 45 32 30 24 38 37 34 28 38 60 76 72 69 64 72 70 71 66
34 30 28 34 43 40 36 35 33 32 32 33 39 54 58 57 46 84 70 50 45 51 52 67 54 47 68 55 39 26 25 36 30 35 56 72 67 68 65 68 71 70 70
34 31 31 37 50 49 48 36 33 34 32 30 37 48 43 68 55 63 55 63 56 60 63 56 48 51 47 52 43 42 30 27 28 44 42 71 71 67 69 68 70 71 72
34 33 32 38 49 49 51 53 42 36 33 32 31 38 52 47 50 64 58 68 65 69 77 46 49 68 62 46 43 39 30 30 34 37 41 53 75 70 66 68 71 72 71
32 34 36 40 44 53 55 53 46 36 33 32 32 42 48 52 56 65 56 62 70 74 52 59 52 64 46 38 39 29 38 40 32 37 46 46 54 75 68 67 70 73 73
34 40 39 34 41 50 53 52 45 37 34 33 31 36 49 53 57 59 49 48 68 56 41 67 42 36 46 31 34 30 33 31 34 31 33 52 53 45 67 70 69 70 73
36 41 44 42 41 49 58 50 49 50 39 34 31 32 54 52 55 57 86 78 56 56 55 39 64 47 35 33 34 29 32 31 43 27 32 36 38 57 52 73 74 70 66
35 40 47 42 52 59 53 59 45 40 40 35 32 32 53 50 53 57 60 54 48 54 71 70 57 40 41 35 26 27 31 30 30 30 30 33 33 32 50 52 56 64 70
35 42 51 55 62 55 51 50 47 43 42 37 34 43 48 49 56 61 53 58 51 64 53 54 51 54 46 38 33 33 33 31 31 27 25 28 30 41 36 34 57 59 63
37 46 57 61 67 64 53 55 47 46 35 36 35 47 48 51 56 57 63 74 56 84 61 62 59 67 36 34 40 33 37 33 28 27 27 27 31 26 29 33 37 54 70
38 47 56 66 68 67 63 56 55 48 45 38 38 39 47 53 54 62 60 57 58 58 82 64 58 56 40 36 51 44 42 59 32 30 35 32 35 28 31 35 37 41 48
35 41 55 65 69 67 71 58 68 50 44 37 40 36 42 54 53 53 58 56 64 52 76 60 52 55 59 43 37 36 52 54 68 63 35 33 34 32 35 32 34 37 40
31 37 46 65 72 69 72 70 56 61 40 37 35 54 60 69 56 49 59 61 65 57 65 68 66 68 50 45 36 36 42 33 40 46 68 58 35 31 35 35 30 40 38
28 33 43 64 75 73 72 74 72 68 59 42 44 40 40 41 49 60 54 65 73 64 58 61 67 67 67 52 39 38 35 37 37 38 36 45 45 55 30 31 34 32 32

GFSSE_sfc_rhum_036.txt.gz
RH
74 66 76 75 78 79 80 80 81 81 81 82 80 80 79 80 80 80 79 77 77 76 75 73 72 70 71 72 67 66 68 72 73 74 74 75 74 73 71 67 72 64 77
66 64 76 75 76 79 82 82 82 82 82 80 80 79 78 78 76 79 78 75 74 74 71 70 71 71 71 71 68 69 70 70 71 69 69 71 72 74 73 70 72 71 75
67 66 67 80 78 80 82 82 81 81 80 80 79 77 78 76 77 77 74 74 74 72 71 69 69 69 70 70 69 66 71 70 70 67 64 61 64 72 72 73 77 75 77
56 50 56 83 80 80 83 81 80 77 77 79 77 78 78 75 75 73 72 73 72 71 70 69 68 66 66 68 70 66 67 68 64 66 67 52 45 70 73 76 78 76 76
48 42 68 82 81 80 81 81 80 79 77 76 76 76 74 74 72 71 72 71 72 71 68 68 67 65 63 65 67 69 66 63 62 61 62 65 59 65 70 71 72 71 73
46 45 74 79 78 80 81 80 78 78 75 76 74 72 73 72 71 70 71 70 70 69 69 68 68 67 65 64 65 65 63 63 63 74 62 69 70 70 69 73 71 72 74
50 64 62 82 81 81 80 78 78 75 74 74 73 72 71 70 71 71 69 69 68 68 68 68 68 68 67 67 65 64 63 61 59 63 57 69 76 76 72 70 70 71 74
48 50 62 79 81 80 77 77 77 75 73 73 72 71 71 71 71 71 69 68 67 66 66 66 67 69 69 69 68 65 61 63 50 63 64 71 81 76 72 74 74 73 73
37 48 59 64 72 76 78 76 75 74 73 73 72 71 70 69 69 69 70 68 66 66 65 64 64 66 68 70 69 67 63 62 57 68 59 73 81 74 74 74 75 75 75
36 45 56 60 60 65 65 74 73 73 72 72 71 69 67 66 64 67 75 72 66 65 62 61 61 62 68 72 72 68 62 63 62 54 64 76 80 71 74 73 74 75 75
39 41 44 46 58 66 66 66 72 72 72 72 73 70 75 81 69 65 71 70 63 62 61 61 60 63 72 73 74 72 68 64 63 57 65 84 80 68 67 73 69 75 76
40 37 38 44 50 55 44 72 71 61 60 65 75 86 89 85 82 56 64 72 66 61 60 71 75 75 70 54 64 74 76 59 55 58 70 84 78 70 66 69 69 68 73
36 33 36 47 56 50 60 61 57 54 54 65 90 94 93 92 74 74 65 62 68 68 76 66 78 66 62 58 52 57 61 63 52 52 75 83 78 69 72 70 73 66 66
35 34 34 44 57 54 55 49 49 45 54 49 72 88 94 87 95 85 74 70 80 70 89 83 90 75 61 61 50 51 45 40 48 56 78 81 79 73 69 73 72 71 67
34 32 37 49 62 65 67 50 50 57 44 49 59 65 96 88 90 83 81 82 78 80 88 84 77 67 70 60 62 52 42 39 46 51 68 78 76 76 70 70 71 72 72
37 34 41 50 60 62 65 68 66 58 53 52 50 60 66 76 80 77 79 71 76 74 86 75 75 77 67 65 66 57 46 48 54 51 61 76 79 76 76 73 72 72 71
38 37 44 51 52 64 67 66 65 57 43 48 56 67 61 68 75 75 75 79 78 84 75 73 69 79 69 51 56 55 50 45 50 52 52 59 72 77 75 75 77 77 73
37 44 47 35 48 59 65 67 64 54 53 54 52 59 63 63 68 74 80 82 77 75 77 66 76 74 75 64 55 56 55 50 49 58 55 56 66 60 74 76 77 78 73
39 48 51 48 53 61 69 64 63 63 60 56 54 56 70 67 67 77 84 89 81 75 78 69 69 66 68 59 48 60 57 49 51 37 57 59 62 60 62 77 80 79 70
41 50 53 50 63 69 65 71 61 57 59 58 58 56 71 68 67 76 84 77 81 74 75 74 74 68 66 64 35 46 53 55 56 58 48 48 62 64 64 70 81 76 75
41 52 57 62 70 67 65 66 64 60 62 61 60 60 72 69 71 77 85 89 76 76 78 72 70 71 72 62 66 61 61 48 48 48 53 49 59 52 60 69 75 71 75
43 54 62 64 71 69 65 69 64 66 57 57 60 65 64 66 72 74 81 80 76 86 82 74 74 83 69 61 73 66 70 64 49 46 54 46 50 51 47 64 67 78 78
45 54 62 68 72 72 70 69 72 69 69 62 59 60 62 65 69 76 76 82 81 82 90 83 76 76 76 63 68 76 77 68 69 58 54 53 51 59 56 60 62 75 77
42 49 62 68 72 72 74 69 76 65 62 59 60 60 61 66 68 72 76 78 81 83 83 86 76 78 76 70 65 60 69 74 75 66 65 61 58 48 60 61 59 62 73
37 47 57 70 74 75 74 78 68 70 59 56 59 68 74 75 72 64 74 78 80 78 86 83 81 81 79 78 68 66 68 71 67 75 71 69 62 63 61 62 58 61 62
35 45 54 72 78 77 77 76 81 75 70 59 61 62 63 66 66 73 72 77 81 80 83 85 84 83 85 82 75 70 69 70 70 70 73 68 69 68 64 61 60 66 62

GFSSE_sfc_rhum_042.txt.gz
RH
95 93 83 80 78 78 76 80 80 82 82 82 81 80 79 79 80 81 81 79 77 77 74 74 74 70 66 68 72 72 73 75 75 75 76 76 76 75 77 75 76 71 76
88 90 83 82 79 78 78 80 81 82 80 81 81 79 79 77 77 78 79 75 74 76 74 74 74 71 70 71 70 72 73 72 74 73 73 74 72 73 74 74 77 74 76
90 85 79 83 81 79 80 82 81 78 78 80 78 79 79 76 76 76 76 74 72 72 73 73 73 72 68 71 72 72 73 72 71 71 75 81 72 71 76 75 76 76 77
88 86 80 85 82 80 81 81 80 77 80 79 78 80 78 76 77 74 74 73 73 72 72 71 70 71 70 67 70 70 71 70 69 69 77 72 62 75 74 75 76 75 77
86 88 80 85 83 81 79 80 78 78 76 77 76 76 78 76 74 74 73 72 72 72 71 69 69 68 69 68 66 70 71 68 68 69 71 83 78 70 73 75 74 74 76
84 83 83 82 78 78 78 79 76 77 76 77 76 77 76 74 72 72 72 72 72 71 70 69 67 67 67 68 67 69 66 74 70 81 82 82 82 72 75 74 74 76 77
87 86 81 83 83 79 78 76 76 75 75 77 77 75 75 73 72 72 72 71 71 71 71 70 69 68 67 68 67 71 67 67 79 86 86 87 81 77 73 72 75 76 77
86 85 81 82 83 79 75 78 76 75 76 76 75 75 76 74 73 72 71 70 70 69 70 70 71 71 69 69 68 69 70 69 73 84 85 90 82 74 70 71 76 76 77
81 85 86 82 76 76 77 78 76 76 76 75 75 75 74 73 72 71 72 70 69 68 68 68 70 74 74 71 68 71 71 72 81 84 80 89 82 73 72 72 75 77 76
82 87 92 90 89 91 83 76 75 76 75 75 74 72 72 71 69 70 77 75 69 67 66 66 68 70 70 71 70 68 72 73 80 81 86 85 82 73 73 74 75 75 76
84 90 90 90 96 95 90 78 76 76 75 75 77 81 82 92 91 80 74 71 67 65 66 68 71 73 71 69 69 68 74 92 83 86 91 87 80 72 73 75 76 77 76
89 89 88 89 93 92 74 88 91 83 88 90 84 84 93 90 90 84 76 70 66 62 65 66 66 70 69 80 82 73 89 83 89 85 91 85 79 72 71 76 77 77 76
79 81 83 83 87 87 81 95 97 93 92 97 87 88 90 90 93 95 90 90 84 72 81 74 81 80 76 79 76 73 80 77 89 81 86 83 75 70 71 70 76 77 76
75 75 75 76 79 84 88 90 92 88 88 93 93 84 95 94 95 95 94 86 90 88 87 86 90 83 83 73 72 76 72 71 80 90 93 86 78 71 72 67 67 71 73
68 68 69 70 76 79 84 88 88 86 84 87 95 89 94 94 95 92 89 94 88 89 87 93 87 79 80 70 66 67 67 70 80 90 98 82 83 78 74 72 68 66 68
58 61 63 69 72 73 74 82 82 77 78 85 94 85 92 93 95 93 94 90 87 92 92 92 90 86 81 75 64 56 63 69 77 89 92 91 83 83 78 73 73 72 72
52 54 60 66 69 70 70 75 75 73 63 75 83 87 92 89 92 92 97 93 85 93 88 84 79 85 74 72 60 62 66 69 73 76 77 88 88 82 80 77 77 77 74
46 52 56 54 66 66 78 75 77 72 70 75 76 86 85 86 88 94 95 94 91 94 94 94 90 75 80 75 71 65 70 72 69 70 77 86 90 77 84 81 82 81 76
50 51 57 55 68 66 80 74 75 75 78 76 79 79 82 84 87 90 90 92 91 91 92 79 81 82 80 68 66 67 69 74 66 63 74 78 86 85 88 84 83 83 74
54 52 53 53 70 69 82 79 78 78 80 81 77 80 79 84 84 91 92 83 90 87 87 84 78 72 68 74 50 60 62 69 70 73 71 68 81 79 84 87 90 90 81
59 56 54 56 70 73 83 89 84 79 80 83 79 75 82 84 84 92 95 89 91 92 86 78 81 73 74 73 70 66 67 54 66 74 80 78 77 77 84 89 92 90 88
61 57 56 57 66 69 67 70 86 84 85 80 77 82 82 83 86 88 92 91 90 91 89 87 84 89 83 73 79 76 65 59 72 70 81 75 80 77 77 81 83 87 92
61 59 60 61 64 64 70 79 93 91 86 84 82 89 85 84 85 88 90 92 92 92 94 90 86 83 73 79 75 73 76 68 73 69 71 81 81 81 82 82 80 84 90
52 55 60 65 66 66 75 71 71 69 77 81 80 80 87 84 85 87 86 88 92 94 91 93 87 89 70 69 71 73 81 80 65 66 72 69 76 70 79 91 84 82 87
45 56 57 70 69 69 76 69 68 69 76 87 79 77 88 84 83 81 87 87 90 96 92 91 93 91 82 73 68 78 78 83 83 73 74 70 76 70 82 84 84 86 86
49 55 59 74 74 73 75 73 71 72 85 82 86 75 85 81 82 89 85 88 91 95 94 92 92 90 93 85 84 78 66 66 71 77 84 79 70 68 75 77 88 85 87

GFSSE_sfc_rhum_045.txt.gz
RH
97 94 82 80 76 78 78 79 80 81 80 80 80 78 78 77 77 78 78 75 74 73 74 70 68 66 69 71 69 70 73 75 76 76 76 76 78 76 76 76 76 72 75
95 92 83 81 76 79 78 80 79 81 79 80 78 77 77 77 78 78 76 76 74 74 74 73 70 70 67 69 71 72 73 73 73 73 73 73 77 76 74 75 76 74 75
94 89 81 81 78 78 80 80 78 80 79 79 79 77 78 76 76 76 73 74 74 74 73 73 70 70 71 70 70 69 71 72 73 73 75 82 78 73 74 74 76 75 75
91 90 85 83 81 78 79 78 78 75 76 78 78 77 76 75 75 75 73 73 73 73 74 74 71 68 70 71 71 74 74 72 71 74 80 75 66 74 75 75 76 76 77
94 92 83 83 82 77 77 78 80 77 76 78 78 77 77 76 74 73 73 73 73 72 73 72 73 68 66 70 70 70 71 71 69 73 82 84 82 72 75 74 74 74 76
92 88 80 78 78 76 76 78 78 75 75 76 78 76 75 73 73 73 73 73 72 71 70 69 71 70 71 67 67 67 70 72 74 83 86 81 82 72 74 73 74 73 77
96 90 81 81 79 78 76 76 76 75 76 78 78 74 74 73 72 73 73 73 72 72 72 72 72 69 70 68 68 69 72 70 85 90 90 92 86 79 71 74 75 76 76
93 91 82 80 77 78 75 75 75 76 77 76 76 76 74 74 73 73 72 71 70 70 72 73 71 70 71 69 69 69 73 72 79 88 89 90 82 74 69 74 75 76 76
88 91 90 86 76 75 77 75 75 76 76 76 76 76 75 74 72 73 72 70 69 68 68 70 68 68 68 70 70 70 73 76 90 92 84 93 81 68 70 75 77 75 75
92 94 97 94 88 91 86 75 75 76 76 75 74 74 72 72 71 74 78 75 68 67 67 68 69 70 70 70 68 72 72 76 88 88 93 93 80 70 67 74 75 76 75
94 98 97 96 97 95 92 79 77 75 75 74 76 80 85 93 89 84 75 71 66 66 67 71 71 71 71 71 71 72 75 93 89 92 96 86 79 71 72 72 74 76 76
88 97 98 97 97 96 79 89 93 86 90 94 93 89 94 90 92 84 79 69 66 65 69 63 69 68 71 79 80 79 90 88 93 91 96 84 78 69 72 76 76 75 76
88 92 97 97 97 96 90 98 98 96 97 98 86 89 92 91 94 93 92 91 86 74 82 80 84 82 78 82 72 88 89 86 94 89 88 84 78 69 70 70 76 76 76
92 90 93 94 97 96 96 98 98 96 97 98 96 86 94 97 95 94 95 90 92 90 88 87 93 85 78 77 80 81 79 80 88 91 93 83 78 71 66 72 76 75 74
88 86 88 88 94 93 96 98 97 95 94 93 94 88 94 95 95 91 93 93 91 93 90 94 95 83 80 73 75 78 79 79 86 94 99 79 79 76 68 66 68 70 72
80 82 82 83 87 89 95 95 95 92 89 91 94 85 91 94 93 93 94 90 90 93 92 93 94 90 80 76 73 76 74 79 89 96 97 92 83 80 75 71 69 67 68
73 74 78 78 81 87 90 87 88 86 80 89 88 86 86 89 91 94 94 92 90 93 89 88 83 88 76 71 67 73 75 78 85 92 96 97 91 80 79 74 75 74 74
66 70 71 63 74 82 85 82 80 80 81 80 89 90 86 87 92 94 94 94 92 93 95 94 93 82 84 76 72 74 76 77 79 84 86 90 94 87 83 80 81 80 76
60 64 68 69 75 79 83 81 83 77 82 84 90 92 89 87 88 93 93 94 93 94 96 90 87 87 69 77 70 73 80 81 77 70 82 88 92 91 95 86 84 84 76
54 57 61 66 75 77 82 84 86 85 87 86 89 90 87 92 88 91 93 89 92 95 94 90 81 81 80 73 59 67 74 76 75 81 76 76 88 88 92 93 94 91 80
54 55 60 64 72 76 89 86 87 84 86 88 87 82 85 89 89 92 94 92 94 94 87 80 85 76 74 77 74 69 69 70 77 82 83 83 83 82 89 92 96 94 92
57 53 60 61 68 75 68 70 81 82 85 83 82 84 84 84 89 90 93 94 92 94 91 90 86 90 80 78 76 73 68 63 76 75 88 78 84 83 84 84 90 90 93
62 59 59 59 62 69 67 85 96 89 87 88 87 89 88 85 88 90 91 93 94 95 95 92 90 82 70 82 81 71 76 69 80 75 77 86 83 89 87 84 83 86 93
59 61 60 58 60 67 73 72 82 70 70 78 87 86 90 87 87 89 89 90 92 97 94 94 89 91 73 76 76 82 83 73 69 76 72 74 79 82 85 90 85 85 91
51 61 61 61 62 64 75 64 70 73 75 96 90 83 94 94 88 87 90 91 94 97 93 93 93 92 73 73 68 82 81 89 80 73 71 74 80 77 77 85 90 91 88
49 58 62 66 66 64 72 70 69 70 91 94 94 89 92 96 89 91 89 93 92 95 95 93 93 92 91 85 76 78 70 73 81 79 84 82 78 71 75 87 91 93 91

GFSSE_sfc_rhum_048.txt.gz
RH
94 96 81 76 78 76 79 79 79 79 79 78 77 75 75 76 77 77 78 75 72 74 68 68 67 68 69 72 73 72 74 77 76 76 78 79 76 77 76 75 72 66 75
93 92 81 78 77 76 78 80 79 79 79 79 78 77 76 75 76 76 74 73 72 74 69 70 68 67 68 68 70 71 73 74 75 74 75 76 74 75 75 74 76 69 76
93 90 80 81 78 79 77 80 78 78 78 78 77 76 76 76 76 75 74 73 74 74 71 69 71 70 66 69 70 73 73 74 72 73 77 76 72 74 74 75 74 75 74
94 94 83 83 81 77 78 80 77 77 78 78 77 76 75 76 74 72 73 73 71 72 71 68 68 68 68 69 70 71 70 71 73 76 75 71 65 74 74 76 75 76 75
96 96 82 81 81 76 78 78 76 78 77 76 75 75 74 76 75 73 72 72 74 72 69 70 68 68 67 67 70 71 72 72 72 75 79 80 79 71 74 75 74 75 77
95 93 79 79 75 76 79 79 75 77 77 77 75 76 74 73 72 72 72 73 72 71 70 70 69 68 68 70 72 69 71 70 76 81 81 78 75 73 73 72 71 75 76
97 91 79 81 78 75 79 76 74 75 76 76 77 75 73 71 70 73 73 72 71 71 71 69 69 67 67 67 72 70 74 74 83 85 84 84 78 76 74 74 76 75 76
94 92 85 78 79 76 76 76 75 77 75 76 77 75 74 74 73 72 71 72 71 70 69 68 67 67 68 67 69 73 71 72 77 84 84 81 81 73 73 75 75 75 75
92 92 93 84 81 74 74 74 75 76 76 77 78 76 75 74 73 72 71 70 70 70 66 64 66 67 69 68 68 72 72 80 85 84 77 79 80 72 72 74 74 75 75
97 96 98 91 88 89 82 73 72 75 75 75 75 75 74 73 72 72 75 73 69 68 66 63 66 70 69 69 72 76 75 80 81 82 83 76 75 68 73 74 75 76 75
97 98 98 95 95 94 90 79 76 74 74 74 76 80 86 91 87 81 74 69 68 68 67 68 68 72 72 69 72 74 80 89 84 83 81 81 76 69 70 73 76 76 75
92 96 98 97 97 95 81 90 91 84 89 92 93 90 94 90 90 81 78 67 65 70 66 68 70 68 70 80 87 78 83 81 87 83 80 82 78 72 70 74 75 76 74
75 86 98 98 97 96 92 95 95 95 94 96 88 90 91 91 92 91 86 92 89 76 78 80 82 76 76 76 76 76 83 81 86 80 80 81 75 68 64 73 74 75 75
78 82 97 97 98 97 96 96 95 95 95 95 91 85 93 95 93 94 93 88 90 86 86 86 88 82 73 78 73 78 83 77 79 80 81 82 77 67 68 74 75 74 74
84 92 97 96 97 97 96 97 96 95 94 92 94 85 91 92 92 88 90 93 89 91 92 93 90 80 77 69 75 76 77 83 78 80 82 75 79 73 66 69 72 71 72
90 93 94 93 95 96 96 97 95 93 91 92 90 83 88 92 92 92 94 93 91 89 89 92 90 84 80 71 76 76 76 76 82 84 81 84 80 80 70 66 66 67 68
84 88 92 91 92 95 95 94 93 90 84 89 89 86 84 89 91 91 93 90 88 91 86 88 80 80 76 69 75 77 75 79 80 84 88 91 80 77 76 74 73 71 70
82 88 87 74 84 93 94 91 88 88 87 87 88 90 84 88 91 92 92 91 88 88 94 95 90 80 78 72 74 76 76 76 80 82 82 82 89 84 81 78 79 77 75
78 84 86 81 85 89 92 89 86 84 86 86 88 89 88 86 87 92 91 90 91 93 94 93 88 82 78 76 69 74 75 75 74 68 78 80 81 80 82 84 83 82 75
73 77 80 80 88 91 92 90 88 87 86 87 89 89 89 88 88 90 93 91 89 90 90 83 86 81 80 76 58 67 74 74 73 75 73 72 78 79 78 82 82 77 82
69 74 77 81 90 88 95 91 91 89 88 89 89 89 89 89 90 92 93 91 92 93 86 81 81 77 75 76 75 71 70 70 71 74 72 72 73 74 76 77 79 78 75
66 69 76 78 87 83 81 87 86 87 86 85 87 88 87 88 91 91 93 92 92 92 92 86 83 86 76 77 76 74 72 68 70 67 74 72 73 72 71 74 78 81 80
64 67 72 76 80 82 84 89 93 88 88 87 87 88 87 86 89 92 91 92 94 96 96 90 86 82 74 80 78 74 73 70 74 71 72 74 76 75 74 74 73 76 80
62 62 68 73 77 79 83 84 87 83 80 86 86 86 88 87 87 89 90 89 92 97 95 92 85 85 79 79 78 79 79 75 71 71 68 69 73 72 74 74 70 71 77
60 63 63 72 75 78 82 80 78 80 82 88 87 86 90 92 89 86 90 90 90 94 93 93 91 90 76 78 76 79 81 78 75 71 70 69 70 71 73 73 71 72 75
55 63 66 74 76 78 81 80 82 81 87 91 91 86 88 91 90 90 89 91 91 92 92 92 91 90 87 80 76 78 75 76 74 72 72 72 69 68 68 70 73 73 74